Home   Weather   Vallejo   Past weeks

Flag for USA Past Weather in Vallejo, California, USA — Yesterday and Last 2 Weeks

Now
57 °F

Passing clouds.


Feels Like: 55 °F
Forecast: 47 / 54 °F
Wind: 10 mph from Southwest

Location: Napa County Airport

Current Time: Jan 22, 2017 at 2:40:09 pm

Latest Report: Jan 22, 2017 at 1:54 pm


Visibility: 10 mi

Pressure: 29.65 "Hg

Humidity: 67%

Dew Point: 46 °F

Location of VallejoLocation

Past Weather in Vallejo — Graph

°F

Vallejo Temperature Yesterday

Maximum temperature yesterday: 57 °F (at 11:54 am)
Minimum temperature yesterday: 48 °F (at 2:54 am)
Average temperature yesterday: 52 °F

High & Low Weather Summary for the Past Weeks

 TemperatureHumidityPressure
High63 °F (Jan 8, 10:54 am)97% (Jan 13, 4:54 am)30.25 "Hg (Jan 13, 4:54 am)
Low34 °F (Jan 16, 7:54 am)58% (Jan 14, 3:54 pm)29.27 "Hg (Jan 20, 1:54 pm)
Average50 °F84%29.91 "Hg
* Reported Jan 7 12:54 pm — Jan 22 12:54 pm, Vallejo, Weather by CustomWeather, © 2017

Note: Actual official high and low records may vary slightly from our data, if they occured in-between our weather recording intervals... More about our weather records

Advertising

Vallejo Weather History for the Previous 24 Hours

Scroll right to see more
 ConditionsComfort  
Time TempWeatherWind HumidityBarometerVisibility
12:54 pm
Sun, Jan 22
58 °FScattered clouds.12 mph72%29.68 "Hg10 mi
11:54 am57 °FScattered clouds.13 mph74%29.72 "Hg10 mi
10:54 am56 °FScattered clouds.10 mph81%29.75 "Hg10 mi
9:54 am54 °FScattered clouds.7 mph83%29.75 "Hg10 mi
9:28 am54 °FScattered clouds.10 mph83%29.77 "Hg10 mi
8:54 am53 °FMostly cloudy.8 mph86%29.73 "Hg10 mi
7:54 am49 °FPartly sunny.7 mph90%29.70 "Hg10 mi
7:25 am50 °FScattered clouds.6 mph89%29.71 "Hg10 mi
6:54 am51 °FPartly cloudy.7 mph89%29.67 "Hg10 mi
5:54 am51 °FLight rain. Mostly cloudy.9 mph89%29.65 "Hg9 mi
4:54 am51 °FRain. Fog.18 mph89%29.64 "Hg5 mi
4:37 am51 °FRain. Fog.15 mph89%29.66 "Hg5 mi
3:54 am51 °FLight rain. Fog.12 mph86%29.60 "Hg5 mi
3:22 am50 °FRain. Fog.9 mph89%29.63 "Hg3 mi
3:01 am50 °FRain. Fog.15 mph86%29.64 "Hg2 mi
2:37 am50 °FRain. Fog.12 mph86%29.65 "Hg3 mi
2:23 am50 °FRain. Fog.12 mph86%29.66 "Hg4 mi
1:54 am50 °FRain. Fog.12 mph86%29.65 "Hg4 mi
1:20 am50 °FRain. Fog.14 mph86%29.69 "Hg6 mi
12:54 am50 °FRain. Mostly cloudy.16 mph83%29.68 "Hg5 mi
11:54 pm
Sat, Jan 21
50 °FLight rain. Overcast.18 mph83%29.72 "Hg9 mi
10:54 pm51 °FLight rain. Overcast.14 mph80%29.76 "Hg10 mi
9:54 pm50 °FLight rain. Overcast.12 mph83%29.78 "Hg9 mi
8:54 pm50 °FLight rain. Overcast.10 mph86%29.80 "Hg10 mi
7:54 pm51 °FLight rain. Overcast.9 mph83%29.82 "Hg10 mi
6:54 pm52 °FLight rain. Overcast.9 mph77%29.83 "Hg10 mi
5:54 pm52 °FLight rain. Overcast.7 mph80%29.83 "Hg9 mi
4:54 pm54 °FMostly cloudy.6 mph72%29.83 "Hg10 mi
3:54 pm55 °FOvercast.7 mph69%29.83 "Hg10 mi
2:54 pm55 °FScattered clouds.8 mph72%29.83 "Hg10 mi
Weather by CustomWeather, © 2017

See weather overviewHow to use our weather pages